LANDSAT 1 (ERTS 1)

导读 | 星芒AI

LANDSAT 1,原名ERTS 1(地球资源技术卫星1号),是美国于1972年7月23日发射的首颗地球观测卫星。它由NASA与美国地质调查局(USGS)合作运营,搭载多光谱扫描仪,用于收集地球表面的图像数据,支持资源调查、环境监测和土地利用研究。LANDSAT 1的成功标志着现代遥感技术的开端,为后续LANDSAT系列卫星奠定了基础,至今其数据仍被广泛应用于科学研究和政策制定。

基本信息
目录编号:
6126
目录名称:
LANDSAT 1 (ERTS 1)
国际标识:
1972-058A
轨道中心:
EARTH
卫星名称:
LANDSAT 1 (ERTS 1)
卫星全名:
--
卫星状态:
在轨 (已飞行19456 天)
发射日期:
1972-07-23 UTC
国别 :
美国 (US)
星等 :
--
轨道信息
数据来源 国际轨道数据
星历时间: 2025-10-29T19:28:52+0800
5小时前
查看轨道信息
半长轴: 7279.536km
偏心率: 0.0008473
轨道倾角: 99.360°
近地点辐角 157.174°
升交点赤经 323.093°
平近点角 202.980°
近地点: 895.233km
远地点: 907.569km
周期: 103.018分钟
每日圈数: 13.978072
详细信息
使用方式:
暂无
2D轨道图
3D轨道图
轨道高度分析图
轨道倾角分析图
轨道综合分析图
查看轨道综合分析图